Date String (YYYY-MM-DD hh:mm:ss) UTC,Instrument flags,absolute air pressure of the measurement (hPa),sample flow rate (lpm),inlet stack bypass flow (lpm),air temperature of the measurement (°C),ambient temperature measured by the external sensor (°C),aerosol sample conditioner tube jacket temperature (°C),OPC LED temperature (°C),internal box temperature (°C),relative humidity of the measurement (%),span deviation,mass concentration of particles derived from Lorenz-Mie calculation of OPC scattering (μg/m³),mass concentration of particles derived from Lorenz-Mie calculation of OPC scattering (μg/m³),mass concentration of particles derived from Lorenz-Mie calculation of OPC scattering (μg/m³)
DateTimeUTC,F1_M11,P_M11,Q1_M11,Q2_M11,T1_M11,T2_M11,T3_M11,T4_M11,T5_M11,U1_M11,ZSPAN_M11,X2_M11,X0_M11,X1_M11
2023-06-29 04:00:00,SystemResetWarning,0829.7,5.01,000.00,029.8,025.4,000.0,037.7,030.5,34.6,-000.1,0009.35,0032.23,0006.45
2023-06-29 04:01:00,SystemResetWarning,0829.7,5.01,000.00,029.7,025.7,000.0,037.8,030.4,34.9,0000.6,0009.29,0031.54,0006.37
2023-06-29 04:02:00,SystemResetWarning,0829.7,4.99,000.00,029.7,026.1,000.0,037.8,030.5,34.9,0001.4,0009.25,0030.97,0006.32
2023-06-29 04:03:00,SystemResetWarning,0829.7,5.00,000.00,029.7,026.5,000.0,037.9,030.6,34.9,0001.5,0009.15,0031.13,0006.27
2023-06-29 04:04:00,SystemResetWarning,0829.7,5.00,000.00,029.7,026.8,000.0,037.9,030.7,34.9,0000.5,0009.10,0033.63,0006.22
2023-06-29 04:05:00,SystemResetWarning,0829.7,4.99,000.00,029.7,027.1,000.0,037.9,030.8,34.8,-000.3,0009.05,0034.64,0006.18
2023-06-29 04:06:00,SystemResetWarning,0829.7,4.98,000.00,029.7,027.4,000.0,037.9,030.8,34.6,-000.2,0008.97,0032.97,0006.16
2023-06-29 04:07:00,SystemResetWarning,0829.7,5.01,000.00,029.7,027.6,000.0,037.9,030.9,34.7,0000.2,0008.87,0031.94,0006.14
2023-06-29 04:08:00,SystemResetWarning,0829.7,5.01,000.00,029.7,027.8,000.0,038.0,031.0,34.6,-000.1,0008.86,0031.62,0006.12
2023-06-29 04:09:00,SystemResetWarning,0829.6,4.99,000.00,029.8,028.0,000.0,038.0,031.0,34.4,-000.8,0008.84,0031.19,0006.12
2023-06-29 04:10:00,SystemResetWarning,0829.6,5.02,000.00,029.8,028.1,000.0,038.0,031.1,34.1,-000.7,0008.81,0030.29,0006.11
2023-06-29 04:11:00,SystemResetWarning,0829.6,4.99,000.00,029.8,028.1,000.0,038.0,031.1,34.1,-000.4,0008.76,0029.05,0006.09
2023-06-29 04:12:00,SystemResetWarning,0829.6,4.98,000.00,029.8,026.7,000.0,037.9,031.0,33.9,-000.0,0008.63,0028.18,0006.05
2023-06-29 04:13:00,SystemResetWarning,0829.6,5.01,000.00,029.8,025.6,000.0,037.9,030.8,34.0,-000.3,0008.54,0027.64,0006.02
2023-06-29 04:14:00,SystemResetWarning,0829.6,5.01,000.00,029.7,025.5,000.0,037.8,030.6,34.2,-000.4,0008.48,0026.74,0005.99
2023-06-29 04:15:00,SystemResetWarning,0829.6,5.00,000.00,029.6,025.8,000.0,037.9,030.5,34.6,0000.1,0008.44,0025.38,0005.98
2023-06-29 04:16:00,SystemResetWarning,0829.6,5.00,000.00,029.5,026.1,000.0,037.9,030.6,34.7,-000.2,0008.47,0026.13,0005.96
2023-06-29 04:17:00,SystemResetWarning,0829.7,5.00,000.00,029.5,026.5,000.0,037.9,030.7,34.6,-000.1,0008.55,0026.83,0005.96
2023-06-29 04:18:00,SystemResetWarning,0829.7,5.00,000.00,029.5,026.9,000.0,037.9,030.7,34.4,0000.2,0008.62,0026.71,0005.96
2023-06-29 04:19:00,SystemResetWarning,0829.7,4.98,000.00,029.5,027.2,000.0,037.9,030.8,34.1,0000.3,0008.57,0027.29,0005.95
2023-06-29 04:20:00,SystemResetWarning,0829.7,4.99,000.00,029.5,027.4,000.0,037.9,030.9,34.0,0000.2,0008.55,0027.64,0005.92
2023-06-29 04:21:00,SystemResetWarning,0829.7,5.01,000.00,029.6,027.6,000.0,037.9,030.9,33.9,-000.2,0008.45,0027.59,0005.90
2023-06-29 04:22:00,SystemResetWarning,0829.7,5.00,000.00,029.6,027.8,000.0,038.0,031.0,33.8,-000.4,0008.39,0028.46,0005.87
2023-06-29 04:23:00,SystemResetWarning,0829.8,4.98,000.00,029.6,028.0,000.0,038.0,031.0,33.8,-000.2,0008.39,0029.16,0005.86
2023-06-29 04:24:00,SystemResetWarning,0829.9,4.99,000.00,029.6,028.1,000.0,038.0,031.1,33.6,0000.0,0008.40,0029.47,0005.85
2023-06-29 04:25:00,SystemResetWarning,0829.9,5.01,000.00,029.7,027.3,000.0,037.9,031.0,33.4,0000.0,0008.44,0030.92,0005.85
2023-06-29 04:26:00,SystemResetWarning,0830.0,5.00,000.00,029.6,025.8,000.0,037.8,030.8,33.4,0000.0,0008.40,0029.76,0005.84
2023-06-29 04:27:00,SystemResetWarning,0830.0,5.01,000.00,029.5,025.4,000.0,037.8,030.6,33.4,0000.0,0008.37,0028.25,0005.82
2023-06-29 04:28:00,SystemResetWarning,0830.0,5.01,000.00,029.4,025.6,000.0,037.8,030.5,33.4,0000.0,0008.25,0027.62,0005.79
2023-06-29 04:29:00,SystemResetWarning,0830.1,5.00,000.00,029.4,026.0,000.0,037.8,030.5,33.5,0000.0,0008.14,0027.44,0005.76
2023-06-29 04:30:00,SystemResetWarning,0830.0,5.00,000.00,029.3,026.4,000.0,037.8,030.6,33.6,0000.0,0008.06,0026.12,0005.74
2023-06-29 04:31:00,SystemResetWarning,0830.0,5.00,000.00,029.3,026.7,000.0,037.8,030.7,33.4,0000.0,0008.01,0024.62,0005.74
2023-06-29 04:32:00,SystemResetWarning,0830.0,5.00,000.00,029.4,027.0,000.0,037.8,030.7,33.0,0000.0,0008.04,0023.70,0005.73
2023-06-29 04:33:00,SystemResetWarning,0830.0,5.00,000.00,029.4,027.3,000.0,037.8,030.8,32.9,0000.0,0008.02,0023.52,0005.71
2023-06-29 04:34:00,SystemResetWarning,0830.0,4.98,000.00,029.4,027.5,000.0,037.8,030.8,32.9,0000.0,0008.02,0022.88,0005.71
2023-06-29 04:35:00,SystemResetWarning,0830.0,5.00,000.00,029.4,027.7,000.0,037.8,030.9,32.9,0000.0,0008.02,0023.50,0005.71
2023-06-29 04:36:00,SystemResetWarning,0830.0,5.01,000.00,029.5,027.9,000.0,037.9,030.9,32.8,0000.0,0007.96,0022.00,0005.69
2023-06-29 04:37:00,SystemResetWarning,0830.0,5.01,000.00,029.5,028.0,000.0,037.9,031.0,32.6,0000.0,0007.89,0022.20,0005.68
2023-06-29 04:38:00,SystemResetWarning,0830.0,5.00,000.00,029.5,028.1,000.0,037.9,031.0,32.4,0000.0,0007.84,0022.50,0005.68
2023-06-29 04:39:00,SystemResetWarning,0830.0,4.99,000.00,029.5,027.9,000.0,037.9,031.1,32.2,0000.0,0007.85,0022.74,0005.66
2023-06-29 04:40:00,SystemResetWarning,0830.0,5.01,000.00,029.5,026.3,000.0,037.8,030.9,32.2,0000.0,0007.85,0024.20,0005.65
2023-06-29 04:41:00,SystemResetWarning,0829.9,5.01,000.00,029.4,025.4,000.0,037.7,030.7,32.1,0000.0,0007.85,0024.64,0005.63
2023-06-29 04:42:00,SystemResetWarning,0829.9,5.00,000.00,029.3,025.4,000.0,037.7,030.5,32.4,0000.0,0007.79,0024.95,0005.62
2023-06-29 04:43:00,SystemResetWarning,0829.8,5.00,000.00,029.3,025.8,000.0,037.7,030.4,32.3,0000.0,0007.73,0024.43,0005.61
2023-06-29 04:44:00,SystemResetWarning,0829.8,5.00,000.00,029.2,026.2,000.0,037.7,030.5,32.2,0000.0,0007.70,0023.79,0005.60
2023-06-29 04:45:00,SystemResetWarning,0829.8,5.00,000.00,029.2,026.6,000.0,037.7,030.6,32.3,-000.1,0007.71,0022.47,0005.58
2023-06-29 04:46:00,SystemResetWarning,0829.8,5.00,000.00,029.2,026.9,000.0,037.7,030.7,32.3,-000.3,0007.69,0022.54,0005.56
2023-06-29 04:47:00,SystemResetWarning,0829.8,4.99,000.00,029.3,027.1,000.0,037.7,030.7,32.2,-000.5,0007.71,0022.91,0005.53
2023-06-29 04:48:00,SystemResetWarning,0829.8,5.00,000.00,029.3,027.4,000.0,037.7,030.8,32.1,-000.4,0007.72,0022.12,0005.50
2023-06-29 04:49:00,SystemResetWarning,0829.8,5.02,000.00,029.3,027.6,000.0,037.8,030.8,32.1,-000.7,0007.70,0022.03,0005.49
2023-06-29 04:50:00,SystemResetWarning,0829.8,4.99,000.00,029.3,027.7,000.0,037.8,030.9,31.8,-000.2,0007.65,0020.76,0005.48
2023-06-29 04:51:00,SystemResetWarning,0829.8,4.99,000.00,029.3,027.9,000.0,037.8,030.9,31.7,0000.5,0007.66,0019.85,0005.47
2023-06-29 04:52:00,SystemResetWarning,0829.8,4.99,000.00,029.4,028.0,000.0,037.8,031.0,31.7,0000.9,0007.63,0019.60,0005.45
2023-06-29 04:53:00,SystemResetWarning,0829.7,5.00,000.00,029.4,028.1,000.0,037.8,031.0,31.7,0000.2,0007.63,0019.09,0005.44
2023-06-29 04:54:00,SystemResetWarning,0829.7,5.02,000.00,029.4,028.1,000.0,037.8,031.0,31.5,0000.0,0007.59,0018.30,0005.43
2023-06-29 04:55:00,SystemResetWarning,0829.7,4.98,000.00,029.5,027.1,000.0,037.8,030.9,31.4,0000.0,0007.56,0017.94,0005.41
2023-06-29 04:56:00,SystemResetWarning,0829.7,5.01,000.00,029.4,025.6,000.0,037.7,030.7,31.4,0000.0,0007.47,0017.82,0005.39
2023-06-29 04:57:00,SystemResetWarning,0829.7,5.01,000.00,029.3,025.3,000.0,037.6,030.5,31.5,0000.0,0007.40,0017.59,0005.39
2023-06-29 04:58:00,SystemResetWarning,0829.7,5.00,000.00,029.2,025.6,000.0,037.6,030.4,31.8,0000.0,0007.33,0017.34,0005.40
2023-06-29 04:59:00,SystemResetWarning,0829.7,5.00,000.00,029.1,025.9,000.0,037.7,030.4,31.9,0000.0,0007.34,0017.60,0005.41
